| time (UTC) | temp F | wind direction | speed MPH | gust MPH | rain 1hr in | rain 24hr in | rain mn in | humidity % | barometer mb |
| 20260505073058 | 55 | 217 | 6.0 | 9.0 | 0.04 | 0.04 | 0.04 | 1 | 1005.9 |
| 20260505071537 | 54 | 360 | 5.0 | 9.0 | 0.03 | 0.03 | 0.03 | 1 | 1005.4 |
| 20260505070033 | 54 | 267 | 0.0 | 6.0 | 0.02 | 0.02 | 0.02 | 1 | 1005.4 |
| 20260505064539 | 55 | 278 | 2.0 | 8.0 | 0.02 | 0.02 | 0.02 | 1 | 1006.0 |
| 20260505063024 | 56 | 306 | 4.0 | 10.0 | 0.00 | 0.00 | 0.00 | 1 | 1005.6 |
| 20260505061530 | 59 | 234 | 3.0 | 9.0 | 0.00 | 0.00 | 0.00 | 10 | 1005.5 |
| 20260505060015 | 63 | 300 | 8.0 | 14.0 | 0.00 | 0.00 | 0.00 | 54 | 1005.2 |
| 20260505054511 | 65 | 318 | 5.0 | 10.0 | 0.00 | 0.00 | 0.00 | 57 | 1004.5 |
| 20260505053007 | 65 | 307 | 5.0 | 13.0 | 0.00 | 0.00 | 0.00 | 57 | 1003.9 |
| 20260505051506 | 65 | 213 | 9.0 | 16.0 | 0.00 | 0.00 | 0.00 | 57 | 1002.7 |
| 20260505041600 | 65 | 204 | 7.0 | 11.0 | 0.00 | 0.00 | 0.00 | 57 | 1002.2 |
| 20260505040056 | 66 | 205 | 7.0 | 14.0 | 0.00 | 0.00 | 0.00 | 57 | 1002.5 |
| 20260505034550 | 66 | 206 | 7.0 | 13.0 | 0.00 | 0.00 | 0.00 | 57 | 1002.6 |
| 20260505033050 | 66 | 219 | 8.0 | 12.0 | 0.00 | 0.00 | 0.00 | 57 | 1002.7 |
| 20260505031604 | 66 | 202 | 6.0 | 11.0 | 0.00 | 0.00 | 0.00 | 57 | 1002.9 |
| 20260505030048 | 66 | 213 | 6.0 | 12.0 | 0.00 | 0.00 | 0.00 | 57 | 1002.9 |
| 20260505024548 | 66 | 208 | 7.0 | 12.0 | 0.00 | 0.00 | 0.00 | 57 | 1002.8 |
| 20260505023052 | 67 | 360 | 7.0 | 11.0 | 0.00 | 0.00 | 0.00 | 56 | 1002.9 |
| 20260505021547 | 67 | 195 | 6.0 | 10.0 | 0.00 | 0.00 | 0.00 | 56 | 1002.8 |
| 20260505020046 | 67 | 196 | 6.0 | 11.0 | 0.00 | 0.00 | 0.00 | 55 | 1002.6 |
| 20260505014546 | 67 | 360 | 5.0 | 8.0 | 0.00 | 0.00 | 0.00 | 56 | 1002.5 |
| 20260505013052 | 67 | 206 | 4.0 | 8.0 | 0.00 | 0.00 | 0.00 | 56 | 1002.5 |
| 20260505011543 | 67 | 202 | 4.0 | 8.0 | 0.00 | 0.00 | 0.00 | 56 | 1002.4 |
| 20260505010044 | 68 | 213 | 5.0 | 10.0 | 0.00 | 0.00 | 0.00 | 54 | 1002.4 |
| 20260505004549 | 68 | 225 | 6.0 | 10.0 | 0.00 | 0.00 | 0.00 | 54 | 1002.3 |
| 20260505003043 | 68 | 189 | 6.0 | 10.0 | 0.00 | 0.00 | 0.00 | 55 | 1002.1 |
| 20260505001543 | 69 | 360 | 7.0 | 11.0 | 0.00 | 0.00 | 0.00 | 55 | 1002.0 |
| 20260505000057 | 69 | 200 | 8.0 | 16.0 | 0.00 | 0.00 | 0.00 | 55 | 1002.1 |
| 20260504234540 | 69 | 203 | 7.0 | 13.0 | 0.00 | 0.00 | 0.00 | 55 | 1002.3 |
| 20260504233040 | 69 | 194 | 7.0 | 13.0 | 0.00 | 0.00 | 0.00 | 55 | 1002.2 |
| 20260504231536 | 69 | 187 | 7.0 | 15.0 | 0.00 | 0.00 | 0.00 | 56 | 1002.8 |
| 20260504230038 | 69 | 205 | 6.0 | 15.0 | 0.00 | 0.00 | 0.00 | 57 | 1003.2 |
| 20260504224534 | 70 | 214 | 9.0 | 14.0 | 0.00 | 0.00 | 0.00 | 53 | 1003.4 |
| 20260504223033 | 70 | 205 | 9.0 | 16.0 | 0.00 | 0.00 | 0.00 | 53 | 1003.4 |
| 20260504221540 | 70 | 213 | 9.0 | 21.0 | 0.00 | 0.00 | 0.00 | 53 | 1003.6 |
| 20260504220032 | 72 | 211 | 10.0 | 23.0 | 0.00 | 0.00 | 0.00 | 49 | 1003.6 |
| 20260504214534 | 73 | 201 | 12.0 | 21.0 | 0.00 | 0.02 | 0.00 | 46 | 1003.5 |
| 20260504213032 | 74 | 227 | 13.0 | 20.0 | 0.00 | 0.02 | 0.00 | 42 | 1003.0 |
| 20260504211528 | 74 | 219 | 11.0 | 18.0 | 0.00 | 0.02 | 0.00 | 43 | 1003.0 |
| 20260504210025 | 73 | 219 | 15.0 | 26.0 | 0.00 | 0.02 | 0.00 | 44 | 1003.4 |
| 20260504204525 | 73 | 205 | 10.0 | 16.0 | 0.00 | 0.03 | 0.00 | 47 | 1003.5 |
| 20260504203025 | 72 | 222 | 14.0 | 26.0 | 0.00 | 0.03 | 0.00 | 48 | 1003.8 |
| 20260504201522 | 72 | 231 | 12.0 | 26.0 | 0.00 | 0.03 | 0.00 | 49 | 1003.8 |
| 20260504200021 | 73 | 245 | 16.0 | 26.0 | 0.00 | 0.03 | 0.00 | 48 | 1004.2 |
| 20260504194519 | 73 | 234 | 16.0 | 32.0 | 0.00 | 0.03 | 0.00 | 47 | 1004.2 |
| 20260504193018 | 73 | 235 | 17.0 | 25.0 | 0.00 | 0.03 | 0.00 | 48 | 1004.4 |
| 20260504191517 | 73 | 216 | 14.0 | 29.0 | 0.00 | 0.03 | 0.00 | 49 | 1004.4 |
| 20260504190016 | 73 | 360 | 16.0 | 26.0 | 0.00 | 0.03 | 0.00 | 49 | 1004.6 |
| 20260504184515 | 72 | 223 | 13.0 | 21.0 | 0.00 | 0.03 | 0.00 | 50 | 1004.4 |
| 20260504183011 | 72 | 210 | 11.0 | 21.0 | 0.00 | 0.03 | 0.00 | 52 | 1004.6 |
| 20260504181509 | 72 | 360 | 10.0 | 21.0 | 0.00 | 0.03 | 0.00 | 52 | 1004.7 |
| 20260504180010 | 72 | 254 | 10.0 | 20.0 | 0.00 | 0.03 | 0.00 | 51 | 1004.7 |
| 20260504174507 | 71 | 360 | 10.0 | 22.0 | 0.00 | 0.03 | 0.00 | 52 | 1004.8 |
| 20260504173005 | 72 | 360 | 11.0 | 18.0 | 0.00 | 0.03 | 0.00 | 51 | 1004.8 |
| 20260504171503 | 71 | 190 | 13.0 | 20.0 | 0.00 | 0.03 | 0.00 | 52 | 1004.9 |
| 20260504081537 | 51 | 204 | 6.0 | 10.0 | 0.00 | 0.03 | 0.00 | 51 | 1008.3 |